Printer-friendly version

IAU Minor Planet Center

Minor Planet Center

MPEC 2000-Y28: 1999 EE5

The following Minor Planet Electronic Circular may be linked-to from your own Web pages, but must not otherwise be redistributed electronically.


Read MPEC 2000-Y27 Read MPEC 2000-Y29


M.P.E.C. 2000-Y28                                Issued 2000 Dec. 22, 01:59 UT

     The Minor Planet Electronic Circulars contain information on unusual
         minor planets and routine data on comets.  They are published
   on behalf of Commission 20 of the International Astronomical Union by the
          Minor Planet Center, Smithsonian Astrophysical Observatory,
                          Cambridge, MA 02138, U.S.A.

             Prepared using the Tamkin Foundation Computer Network

                              MPC@CFA.HARVARD.EDU
          URL http://cfa-www.harvard.edu/iau/mpc.html  ISSN 1523-6714

                                   1999 EE5

                           Revision to MPEC 1999-F05

Observations:
     J99E05E 7C2000 12 20.15249 00 59 39.93 +77 03 15.0                      696
     J99E05E 7C2000 12 20.15968 00 59 38.84 +77 03 08.6                      696
     J99E05E 7C2000 12 21.13021 00 57 40.93 +76 48 30.2                      696
     J99E05E 7C2000 12 21.13454 00 57 40.34 +76 48 25.6                      696

Observer details:
696 Whipple Observatory, Mt. Hopkins.  Observer T. B. Spahr.  1.2-m reflector
    + CCD.

Orbital elements:
1999 EE5
Epoch 2001 Apr. 1.0 TT = JDT 2452000.5                  Williams
M 331.73703              (2000.0)            P               Q
n   0.45702061     Peri.  192.84860     -0.98680061     +0.15694574
a   1.6692147      Node   355.55566     -0.05949288     -0.58054700
e   0.2813334      Incl.   30.99718     -0.15061593     -0.79895758
P   2.16           H   18.4           G   0.15           U   2
Residuals in seconds of arc
990315 704  0.9+  0.8+    990317 900  0.3-  0.9-    990321 726  1.0-  0.3-
990315 704  0.5+  0.2+    990317 402  0.2-  0.8-    990321 726  1.1-  0.3+
990315 704  1.4+  0.2+    990317 402  0.1-  0.9-    990321 726  0.7+  0.2+
990315 704  1.3+  0.6+    990317 402  0.1-  1.0-    990321 726  0.3+  0.0
990315 704  0.0   1.7+    990317 402  0.1-  0.8-    990321 726  0.7+  0.6-
990315 557  0.2-  0.8-    990317 900  0.3-  0.9-    990321 726  0.5+  0.3+
990315 557  0.4+  0.2-    990317 557  0.5-  0.5-    990322 360  0.5-  0.5+
990315 557  0.4+  0.0     990317 557  0.3-  0.8-    990322 360  0.4-  0.4+
990315 587  0.3+  0.7-    990317 557  0.4-  0.7-    990322 360  0.9-  0.5+
990315 587  0.2+  0.7-    990317 636  0.8-  0.2-    990324 118  0.3+  0.1-
990315 587  0.1+  0.4-    990317 636  0.4-  0.3+    990324 118  0.1+  0.3-
990315 611  0.3-  0.1-    990318 860  0.0   0.3-    990325 118  0.5+  0.2-
990315 611  0.1-  0.2-    990318 860  1.0-  1.8-    990325 118  0.7+  0.1+
990315 611  0.3-  0.2-    990318 860 (2.0-  2.9-)   990326 620 (2.0-  0.6-)
990315 611  0.1-  0.1+    990318 587  0.2+  0.5-    990326 620  1.1-  1.5-
990316 744  0.5+  0.3+    990318 587  0.2+  0.8-    990326 620 (0.2-  2.1-)
990316 744  0.5+  0.4+    990318 046  0.2+  0.3+    990326 620 (0.2+  2.6-)
990316 744  0.2+  0.7+    990318 046  0.3+  0.3+    990327 402  0.8-  0.4-
990316 625  1.3-  0.6+    990318 046  0.3+  0.6+    990327 402  1.2-  1.8-
990316 625  1.0-  1.1+    990318 046  0.2-  0.4+    990327 402  1.7-  0.5-
990316 625  1.1-  0.8+    990318 151  1.6+  1.1+    990331 402  0.4+  0.0
990316 625  1.1-  1.4+    990318 151  0.4-  1.8-    990331 402  0.3-  0.4-
990316 422  0.5+  0.4-    990318 151 (2.6+  1.7-)   990331 402  0.3-  0.1-
990316 422  0.3+  0.2-    990318 151  1.4+  1.1+    990401 428  0.3+  0.4-
990316 422  0.5+  0.4-    990318 151  1.3-  0.9-    990401 428  0.9+  0.4+
990316 422  0.3+  0.3-    990319 704  1.2+  0.4+    990401 046  0.6+  0.0
990316 402  0.2+  0.7-    990319 704  0.7+  0.7+    990401 046  0.1+  0.1+
990316 402  0.4+  0.7-    990319 704  0.8+  0.3+    990401 046  1.6+  0.9+
990316 402  0.3+  0.5-    990319 704  0.9+  1.1+    990404 118  0.6-  1.1+
990316 104  1.4-  0.6-    990319 704  0.5+  0.4-    990404 118  1.1-  0.5+
990316 104  0.7-  0.2-    990319 046  0.1+  0.2+    990404 118  0.4-  0.1+
990316 104  0.2-  0.4-    990319 046  0.2+  0.2+    990405 360  0.3-  0.2-
990316 104  0.1-  1.0+    990319 108  1.1-  1.0+    990405 360  0.4-  0.3-
990316 104  0.7-  0.4-    990319 108  1.1+  0.5+    990405 360  0.5-  0.0
990316 151  2.0-  0.8-    990319 108 (0.3-  3.0+)   990406 422  0.0   0.5-
990316 151  1.0-  0.3+    990319 620  0.0   0.6+    990406 422  0.4-  0.3-
990316 151  0.5-  1.0+    990319 620  0.5-  0.3-    990408 360  0.4-  0.2+
990316 151  0.2-  0.1-    990319 620  0.1-  0.3-    990408 360  0.1+  0.0
990316 151  0.5-  0.3-    990319 620  0.0   0.6+    990408 360  0.2-  0.0
990316 133 (0.2+  2.5+)   990320 704  0.7+  0.8+    990411 422  0.5-  0.1-
990316 620  1.1-  0.0     990320 704  0.4-  1.8+    990411 422  0.7-  0.2-
990316 620  1.1-  0.0     990320 704  0.0   1.1+    990415 422  1.1+  0.4+
990316 620  1.1-  0.4-    990320 704  1.3+  1.3+    990415 422  0.8+  0.3+
990316 620  0.6-  0.2-    990320 704  0.4-  1.5+    990415 422  0.9+  0.0
990316 133  1.5+  1.1+    990320 108  0.0   0.7-    990416 426  1.1-  0.5-
990316 133 (1.2+  2.1+)   990320 108  0.1+  0.4-    990416 426  0.1-  0.4+
990317 758  1.6+  0.2-    990320 108  1.3+  0.4+    990416 426  0.4-  0.1+
990317 758  1.1+  0.1+    990321 860 (1.1-  2.6-)   990419 422  0.9+  0.0
990317 758  0.8+  0.0     990321 860 (1.9-  2.8-)   990419 422  0.4+  0.1+
990317 758  0.9+  0.4+    990321 860 (3.1-  3.9-)   990419 422  0.3+  0.0
990317 761  0.4+  0.5+    990321 739 (2.5+  1.2+)   990501 426  0.0   0.3+
990317 761  0.2-  1.3+    990321 739 (5.0+  4.5-)   990501 426  0.3-  0.6+
990317 761  0.8+  0.2+    990321 739  0.6+  1.2-    990501 426  0.5+  0.3-
990317 761  0.9+  0.3+    990321 739 (4.5+  2.7-)   001220 696  0.1+  0.1-
990317 422  0.4-  0.8-    990321 726  0.7+  0.4-    001220 696  0.1-  0.1+
990317 422  0.5-  0.8-    990321 726  0.1+  0.3+    001221 696  0.3+  0.3+
990317 422  0.8-  1.0-    990321 726  0.5+  0.1-    001221 696  0.2+  0.3-

Ephemeris:
1999 EE5                 a,e,i = 1.67, 0.28, 31                  q = 1.1996
Date    TT    R. A. (2000) Decl.     Delta      r     Elong.  Phase     V
2000 12 22    00 56.2    +76 35.1    0.987    1.670   115.9    32.0    20.8
2001 01 01    00 51.6    +73 57.8    0.980    1.632   112.4    33.8    20.8
2001 01 11    01 04.3    +71 25.1    0.979    1.594   108.6    35.8    20.8
2001 01 21    01 28.22   +69 02.2    0.980    1.555   104.7    37.8    20.8
2001 01 31    01 59.94   +66 45.2    0.983    1.516   100.7    39.7    20.8
2001 02 10    02 37.12   +64 25.8    0.986    1.477    96.9    41.6    20.8
2001 02 20    03 17.81   +61 52.2    0.991    1.439    93.2    43.3    20.8
2001 03 02    04 00.21   +58 53.8    0.996    1.401    89.7    45.0    20.8
2001 03 12    04 42.55   +55 22.9    1.003    1.365    86.3    46.6    20.8
2001 03 22    05 23.42   +51 14.8    1.012    1.332    83.0    48.0    20.9
2001 04 01    06 01.97   +46 30.0    1.025    1.300    79.9    49.2    20.9
2001 04 11    06 37.77   +41 12.6    1.042    1.272    77.0    50.1    20.9
2001 04 21    07 10.81   +35 29.2    1.063    1.248    74.2    50.8    20.9
2001 05 01    07 41.38   +29 27.8    1.089    1.228    71.6    51.1    20.9
2001 05 11    08 09.83   +23 16.2    1.119    1.213    69.3    51.1    21.0
2001 05 21    08 36.60   +17 01.4    1.154    1.204    67.2    50.8    21.0
2001 05 31    09 02.17   +10 49.1    1.191    1.200    65.3    50.2    21.0
2001 06 10    09 26.97   +04 43.4    1.231    1.202    63.8    49.3    21.1
2001 06 20    09 51.46   -01 12.7    1.273    1.209    62.6    48.2    21.1
2001 06 30    10 16.09   -06 57.6    1.316    1.222    61.6    47.0    21.2
2001 07 10    10 41.27   -12 29.8    1.360    1.240    60.9    45.7    21.3
2001 07 20    11 07.45   -17 47.7    1.405    1.263    60.4    44.4    21.3
2001 07 30    11 35.09   -22 49.7    1.451    1.290    60.0    43.0    21.4

Gareth V. Williams           (C) Copyright 2000 MPC           M.P.E.C. 2000-Y28

Read MPEC 2000-Y27 Read MPEC 2000-Y29


Our Web policy. Index to the CBAT/MPC/ICQ pages.


Valid HTML 4.01!